Hourly Data Report for September 09, 2017

All times are specified in Local Standard Time (LST). Add 1 hour to adjust for Daylight Saving Time where and when it is observed.

GRAND MANAN SAR CS
NEW BRUNSWICK

44°42'43.400" N
66°48'06.900" W
78.20 m
8101925
71030
XGM

Download Data

Hourly Data (September 2017)
Hourly Data Report for September 9, 2017
Temp Definition
°C
Dew Point Temp Definition
°C
Rel Hum Definition
%
Wind Dir Definition
10's deg

Wind Spd Definition
km/h
Visibility Definition
km
Stn Press Definition
kPa
Hmdx Definition


Wind Chill Definition


Weather Definition


TIME
00:00 10.3 10.0 98 26 2   100.96     LegendNANA
01:00 9.8 9.6 98 12 5   100.99     LegendNANA
02:00 10.7 10.5 99 28 5   100.98     LegendNANA
03:00 10.1 10.0 99 30 2   100.98     LegendNANA
04:00 8.6 8.5 99 34 3   100.96     LegendNANA
05:00 6.9 6.8 99 29 3   100.99     LegendNANA
06:00 7.6 7.5 100 36 1   101.09     LegendNANA
07:00 10.6 10.5 100 5 8   101.16     LegendNANA
08:00 11.7 11.6 100 4 7   101.20     LegendNANA
09:00 12.4 12.3 100 3 11   101.26     LegendNANA
10:00 14.4 12.2 87 5 12   101.28     LegendNANA
11:00 14.6 11.1 80 7 12   101.28     LegendNANA
12:00 15.1 10.5 74 8 10   101.24     LegendNANA
13:00 15.8 11.2 74 7 12   101.25     LegendNANA
14:00 16.3 11.9 75 8 11   101.23     LegendNANA
15:00 18.0 12.7 71 9 9   101.19     LegendNANA
16:00 18.1 12.5 70 7 9   101.19     LegendNANA
17:00 17.8 11.8 68 33 10   101.22     LegendNANA
18:00 13.6 11.4 87 29 7   101.28     LegendNANA
19:00 13.0 11.5 91 33 8   101.26     LegendNANA
20:00 12.8 11.6 92 34 10   101.32     LegendNANA
21:00 12.5 11.6 94 35 4   101.35     LegendNANA
22:00 12.9 12.1 95 35 9   101.39     LegendNANA
23:00 13.9 12.5 92 36 7   101.37     LegendNANA

Notes on Data Quality.

Legend

  • E = Estimated
  • M = Missing
  • NA = Not Available
  • ‡ = Partner data that is not subject to review by the National Climate Archives
Date modified: